Location: Broletto
(44.6000°N, 10.5833°E)
Time: 01:21:30
(UTC+00:00)

Cosmos 1818 - Pass Details

Date: 18 April 2021
Orbit: 772 x 802 km, 65.0° (Epoch: 08 May)

Event Time Altitude Azimuth Distance (km) Brightness Sun altitude
Rises 19:03:36 0° 194° (SSW) 3,264 6.6 -10.3°
Reaches altitude 10° 19:06:04 10° 188° (S) 2,345 5.8 -10.7°
Maximum altitude 19:11:11 45° 117° (ESE) 1,072 3.8 -11.5°
Drops below altitude 10° 19:16:22 10° 46° (NE) 2,376 5.9 -12.3°
Sets 19:18:53 0° 40° (NE) 3,314 6.7 -12.7°
